TimeEST,TemperatureF,Dew PointF,Humidity,Sea Level PressureIn,VisibilityMPH,Wind Direction,Wind SpeedMPH,Gust SpeedMPH,PrecipitationIn,Events,Conditions,WindDirDegrees,DateUTC
12:15 AM,46.4,46.4,100,30.06,10.0,Calm,Calm,-,N/A,,Clear,0,2012-11-04 04:15:00
12:35 AM,46.4,46.4,100,30.06,10.0,Calm,Calm,-,N/A,,Clear,0,2012-11-04 04:35:00
12:55 AM,46.4,46.4,100,30.06,10.0,Calm,Calm,-,N/A,,Clear,0,2012-11-04 04:55:00
1:15 AM,46.4,46.4,100,30.05,10.0,Calm,Calm,-,N/A,,Clear,0,2012-11-04 05:15:00
1:35 AM,46.4,46.4,100,30.05,10.0,Calm,Calm,-,N/A,,Clear,0,2012-11-04 05:35:00
1:55 AM,46.4,46.4,100,30.04,10.0,Calm,Calm,-,N/A,,Clear,0,2012-11-04 05:55:00
1:15 AM,46.4,46.4,100,30.04,10.0,Calm,Calm,-,N/A,,Clear,0,2012-11-04 06:15:00
1:35 AM,46.4,46.4,100,30.04,10.0,Calm,Calm,-,N/A,,Clear,0,2012-11-04 06:35:00
1:55 AM,46.4,46.4,100,30.03,10.0,Calm,Calm,-,N/A,,Clear,0,2012-11-04 06:55:00
2:15 AM,46.4,46.4,100,30.03,10.0,Calm,Calm,-,N/A,,Clear,0,2012-11-04 07:15:00
2:35 AM,46.4,46.4,100,30.03,10.0,Calm,Calm,-,N/A,,Clear,0,2012-11-04 07:35:00
2:55 AM,46.4,46.4,100,30.02,10.0,Calm,Calm,-,N/A,,Clear,0,2012-11-04 07:55:00
3:15 AM,46.4,46.4,100,30.02,10.0,Calm,Calm,-,N/A,,Clear,0,2012-11-04 08:15:00
3:35 AM,46.4,46.4,100,30.01,10.0,Calm,Calm,-,N/A,,Clear,0,2012-11-04 08:35:00
3:55 AM,46.4,46.4,100,30.01,10.0,Calm,Calm,-,N/A,,Clear,0,2012-11-04 08:55:00
4:15 AM,48.2,48.2,100,30.01,10.0,South,3.5,-,N/A,,Clear,190,2012-11-04 09:15:00
4:35 AM,53.6,53.6,100,30.01,10.0,SSW,4.6,-,N/A,,Clear,200,2012-11-04 09:35:00
4:55 AM,59.0,59.0,100,30.00,10.0,SSW,5.8,-,N/A,,Clear,200,2012-11-04 09:55:00
5:15 AM,60.8,60.8,100,30.00,10.0,SSW,6.9,-,N/A,,Clear,210,2012-11-04 10:15:00
5:35 AM,60.8,60.8,100,30.00,10.0,SSW,8.1,-,N/A,,Clear,210,2012-11-04 10:35:00
5:55 AM,60.8,60.8,100,30.00,10.0,SSW,6.9,-,N/A,,Clear,210,2012-11-04 10:55:00
6:15 AM,60.8,60.8,100,30.00,10.0,SW,8.1,-,N/A,,Clear,220,2012-11-04 11:15:00
6:35 AM,60.8,60.8,100,30.00,10.0,SW,8.1,-,N/A,,Clear,220,2012-11-04 11:35:00
6:55 AM,59.0,59.0,100,30.00,10.0,SW,6.9,-,N/A,,Clear,230,2012-11-04 11:55:00
7:15 AM,59.0,59.0,100,30.01,10.0,SW,5.8,-,N/A,,Clear,230,2012-11-04 12:15:00
7:55 AM,62.6,62.6,100,30.01,10.0,SW,8.1,-,N/A,,Clear,230,2012-11-04 12:55:00
8:15 AM,62.6,62.6,100,30.01,10.0,SW,9.2,-,N/A,,Clear,230,2012-11-04 13:15:00
8:35 AM,64.4,62.6,94,30.01,10.0,WSW,9.2,-,N/A,,Clear,240,2012-11-04 13:35:00
8:55 AM,66.2,62.6,88,30.00,10.0,SW,9.2,-,N/A,,Clear,220,2012-11-04 13:55:00
9:15 AM,68.0,60.8,78,30.00,10.0,WSW,10.4,-,N/A,,Clear,250,2012-11-04 14:15:00
9:35 AM,69.8,60.8,73,29.99,10.0,WSW,8.1,-,N/A,,Clear,250,2012-11-04 14:35:00
9:55 AM,71.6,60.8,69,29.99,10.0,WSW,8.1,-,N/A,,Clear,240,2012-11-04 14:55:00
10:15 AM,73.4,60.8,65,29.99,10.0,WSW,8.1,-,N/A,,Clear,250,2012-11-04 15:15:00
10:55 AM,77.0,60.8,57,29.98,10.0,West,6.9,-,N/A,,Clear,260,2012-11-04 15:55:00
11:15 AM,77.0,60.8,57,29.98,10.0,WSW,9.2,-,N/A,,Clear,240,2012-11-04 16:15:00
11:55 AM,78.8,59.0,51,29.96,10.0,West,11.5,16.1,N/A,,Clear,260,2012-11-04 16:55:00
12:15 PM,77.0,59.0,54,29.95,10.0,WSW,10.4,-,N/A,,Clear,250,2012-11-04 17:15:00
12:55 PM,78.8,59.0,51,29.94,10.0,WSW,9.2,-,N/A,,Clear,250,2012-11-04 17:55:00
1:15 PM,77.0,59.0,54,29.93,10.0,WSW,12.7,16.1,N/A,,Clear,250,2012-11-04 18:15:00
1:55 PM,77.0,60.8,57,29.93,10.0,WSW,8.1,-,N/A,,Clear,250,2012-11-04 18:55:00
2:15 PM,78.8,59.0,51,29.92,10.0,WSW,10.4,-,N/A,,Clear,240,2012-11-04 19:15:00
2:35 PM,78.8,59.0,51,29.92,10.0,WSW,9.2,-,N/A,,Clear,240,2012-11-04 19:35:00
2:55 PM,78.8,57.2,47,29.92,10.0,WSW,9.2,17.3,N/A,,Clear,250,2012-11-04 19:55:00
3:15 PM,80.6,57.2,45,29.91,10.0,West,8.1,-,N/A,,Clear,270,2012-11-04 20:15:00
3:35 PM,78.8,59.0,51,29.91,10.0,West,5.8,-,N/A,,Clear,260,2012-11-04 20:35:00
3:55 PM,77.0,62.6,61,29.91,10.0,South,8.1,-,N/A,,Clear,170,2012-11-04 20:55:00
4:15 PM,73.4,62.6,69,29.90,10.0,South,8.1,-,N/A,,Clear,180,2012-11-04 21:15:00
4:35 PM,71.6,62.6,73,29.90,10.0,South,5.8,-,N/A,,Clear,170,2012-11-04 21:35:00
4:55 PM,69.8,62.6,78,29.90,10.0,South,8.1,-,N/A,,Clear,180,2012-11-04 21:55:00
5:15 PM,68.0,62.6,83,29.89,10.0,South,9.2,-,N/A,,Clear,190,2012-11-04 22:15:00
5:35 PM,68.0,62.6,83,29.90,10.0,SSW,6.9,-,N/A,,Clear,210,2012-11-04 22:35:00
5:55 PM,68.0,62.6,83,29.91,10.0,West,5.8,-,N/A,,Clear,270,2012-11-04 22:55:00
6:15 PM,68.0,62.6,83,29.91,10.0,North,6.9,-,N/A,Rain,Light Rain,350,2012-11-04 23:15:00
6:35 PM,64.4,64.4,100,29.90,10.0,North,5.8,-,N/A,,Scattered Clouds,360,2012-11-04 23:35:00
6:55 PM,64.4,60.8,88,29.93,10.0,Calm,Calm,-,N/A,,Mostly Cloudy,0,2012-11-04 23:55:00
7:15 PM,62.6,60.8,94,29.93,10.0,Calm,Calm,-,N/A,Thunderstorm,Overcast,0,2012-11-05 00:15:00
7:35 PM,60.8,60.8,100,29.96,3.0,NW,3.5,11.5,N/A,Rain-Thunderstorm,Heavy Thunderstorms and Rain,320,2012-11-05 00:35:00
7:55 PM,59.0,59.0,100,29.94,10.0,NE,6.9,-,N/A,Rain-Thunderstorm,Light Thunderstorms and Rain,40,2012-11-05 00:55:00
8:15 PM,59.0,59.0,100,29.94,10.0,SE,5.8,-,N/A,,Scattered Clouds,130,2012-11-05 01:15:00
8:35 PM,59.0,59.0,100,29.93,10.0,Calm,Calm,-,N/A,,Scattered Clouds,0,2012-11-05 01:35:00
8:55 PM,59.0,59.0,100,29.98,10.0,SW,6.9,-,N/A,,Mostly Cloudy,230,2012-11-05 01:55:00
9:15 PM,59.0,59.0,100,29.95,7.0,Calm,Calm,-,N/A,Rain,Light Rain,0,2012-11-05 02:15:00
9:35 PM,59.0,59.0,100,29.93,10.0,NE,3.5,-,N/A,,Clear,50,2012-11-05 02:35:00
9:55 PM,59.0,59.0,100,29.94,7.0,North,3.5,-,N/A,,Scattered Clouds,10,2012-11-05 02:55:00
10:15 PM,59.0,59.0,100,29.94,5.0,Calm,Calm,-,N/A,,Scattered Clouds,0,2012-11-05 03:15:00
10:35 PM,59.0,59.0,100,29.95,5.0,North,3.5,-,N/A,,Overcast,360,2012-11-05 03:35:00
10:55 PM,59.0,59.0,100,29.95,7.0,Calm,Calm,-,N/A,,Mostly Cloudy,0,2012-11-05 03:55:00